Regional Weather Roundup
Issued by NWS State College, PA

Home | Current Version | Previous Version | Graphics & Text | Print | Product List | Glossary On
Versions: 1 2 3 4 5 6 7 8 9 10 11 12 13 14 15 16 17 18 19 20 21 22 23 24 25 26 27 28 29 30 31 32 33 34 35 36 37 38 39 40 41 42 43 44 45 46 47 48 49 50
000
ASUS41 KCTP 300310
RWRCTP

REGIONAL WEATHER ROUNDUP
NATIONAL WEATHER SERVICE STATE COLLEGE PA
1100 PM EDT WED MAR 29 2017

Note: "fair" indicates few or no clouds below 12,000 feet with no
significant weather and/or obstructions to visibility.

* = STATION THAT DOES NOT REPORT PRECIPITATION /E.G. RAIN...SNOW...ETC/
    THUNDER OR FOG.

PAZ002>004-007>009-013>016-020>023-029>032-300400-
WESTERN PENNSYLVANIA

CITY           SKY/WX    TMP DP  RH WIND       PRES   REMARKS
ERIE           CLOUDY    44  30  57 E15       30.21F
MEADVILLE      CLOUDY    45  27  49 E9        30.17F
FRANKLIN*      CLOUDY    43  25  49 E7        30.18F
NEW CASTLE     FAIR      47  30  51 E8        30.17F
BEAVER COUNTY  NOT AVBL
BUTLER*        CLEAR     48  30  49 NE10      30.17S
PITTSBURGH INT MOCLDY    50  30  46 NE7       30.15R
PITTSBURGH     CLEAR     50  27  40 NE6       30.14F
INDIANA*       CLEAR     48  30  49 E8        30.19F
LATROBE        CLEAR     43  34  70 CALM      30.16F
WASHINGTON CO* CLEAR     43  32  65 CALM      30.16S
$$

PAZ004>006-010>012-017>019-024>028-033>037-041-042-045-046-049>053-300400-
CENTRAL PENNSYLVANIA

CITY           SKY/WX    TMP DP  RH WIND       PRES   REMARKS
BRADFORD       PTCLDY    38  27  64 E7        30.19F
DUBOIS         PTCLDY    43  26  51 NE10      30.17F
CLEARFIELD     PTCLDY    45  28  51 NE10      30.19F
JOHNSTOWN      CLOUDY    44  30  57 NE9       30.15S
ALTOONA        CLEAR     47  30  51 NE8       30.18S
STATE COLLEGE  PTCLDY    44  28  54 NE10      30.21S
WILLIAMSPORT   CLEAR     42  26  53 N5        30.26R
SELINSGROVE    CLEAR     43  28  55 NE12      30.25R
FT INDIANTOWN  PTCLDY    45  26  47 NE12G17   30.23R
CAPITAL CITY   PTCLDY    50  26  39 E7        30.22R
HARRISBURG     PTCLDY    48  28  46 CALM      30.22R
YORK           CLEAR     46  30  53 NE5       30.21R
$$

PAZ038>040-043-044-047-048-054-055-060>062-067>071-300400-
EASTERN PENNSYLVANIA

CITY           SKY/WX    TMP DP  RH WIND       PRES   REMARKS
SCRANTON       CLEAR     38  25  59 NE12      30.24S
MOUNT POCONO   CLEAR     32  22  66 N8        30.20R
ALLENTOWN      CLEAR     42  25  50 N12       30.25R
QUAKERTOWN*    CLEAR     43  25  49 N5        30.24S
READING        CLEAR     46  27  47 NE8       30.23R
LANCASTER      CLEAR     45  31  58 NE9       30.22R
COATESVILLE    CLEAR     46  25  42 NE8       30.23R
POTTSTOWN      CLEAR     44  24  45 N9        30.25R
BLUE BELL      CLEAR     45  28  53 N3        30.23R
DOYLESTOWN     CLEAR     43  26  51 N7        30.22R
WILLOW GROVE   NOT AVBL
NORTH PHILA    CLEAR     48  26  42 N10       30.24R
PHILADELPHIA   CLEAR     49  25  39 N12       30.23R
$$




USA.gov is the U.S. government's official web portal to all federal, state and local government web resources and services.